カタログに戻る

SL-18 DEB

運用中LEO
NORAD 22568·DEBRIS·🇷🇺 Russia

打ち上げ Mar 25, 1993 から Plesetsk Cosmodrome

Loading…

次のパス (今後24時間)

TLE

最新Source: Space-Track

元期: Sep 14, 2026, 10:43 UTC

1 22568U 93014D   26257.44664446  .00000993  00000-0  25118-3 0  9991
2 22568  75.7440 285.8624 0146956 291.5688 133.8092 14.45499370747456

AllMySatでSL-18 DEBをリアルタイム追跡

Download on the App Store